Tracking 22130 objects as of 21-Jan-2021
HD Live streaming from Space Station
objects crossing your sky now

STARLINK-1581

Track STARLINK-1581 now!
10-day predictions
STARLINK-1581 is classified as:


NORAD ID: 46042
Int'l Code: 2020-055R
Perigee: 552.5 km
Apogee: 556.2 km
Inclination: 53.1 °
Period: 95.6 minutes
Semi major axis: 6925 km
RCS: Unknown
Launch date: August 7, 2020
Source: United States (US)
Launch site: AIR FORCE EASTERN TEST RANGE (AFETR)
aabbcc
Your satellite tracking list
Your tracking list is empty




NASA's NSSDC Master Catalog

Two Line Element Set (TLE):
1 46042U 20055R   21021.52719990  .00000324  00000-0  40702-4 0  9992
2 46042  53.0604 255.5297 0002646  77.2834 282.8451 15.06399510 26524
Source of the keplerian elements: AFSPC